Time,TemperatureF,DewpointF,PressureIn,WindDirection,WindDirectionDegrees,WindSpeedMPH,WindSpeedGustMPH,Humidity,HourlyPrecipIn,Conditions,Clouds,dailyrainin,SoftwareType,DateUTC
2013-10-09 00:06:00,75.9,74.9,0.00,North,0,2.5,2.5,96,0.00,,,-99.99,Homeseer,2013-10-09 04:06:00,
2013-10-09 00:16:00,75.7,75.0,0.00,WNW,297,0.0,0.0,97,0.00,,,-99.99,Homeseer,2013-10-09 04:16:00,
2013-10-09 00:26:00,75.7,75.0,0.00,NW,315,0.0,0.0,97,0.00,,,-99.99,Homeseer,2013-10-09 04:26:00,
2013-10-09 00:36:00,75.6,74.9,0.00,WNW,297,0.0,0.0,97,0.00,,,-99.99,Homeseer,2013-10-09 04:36:00,
2013-10-09 00:46:00,75.6,74.9,0.00,WNW,297,0.0,0.0,97,0.00,,,-99.99,Homeseer,2013-10-09 04:46:00,
2013-10-09 00:56:00,75.4,74.7,0.00,WNW,297,0.0,0.0,97,0.00,,,-99.99,Homeseer,2013-10-09 04:56:00,
2013-10-09 01:06:00,75.6,74.9,0.00,WNW,297,0.0,1.3,97,0.00,,,-99.99,Homeseer,2013-10-09 05:06:00,
2013-10-09 01:16:00,75.4,74.7,0.00,WSW,247,0.0,0.0,97,0.00,,,-99.99,Homeseer,2013-10-09 05:16:00,
2013-10-09 01:26:00,75.6,75.1,0.00,WNW,297,0.0,0.0,98,0.00,,,-99.99,Homeseer,2013-10-09 05:26:00,
2013-10-09 01:36:00,75.6,75.1,0.00,WNW,297,0.0,0.0,98,0.00,,,-99.99,Homeseer,2013-10-09 05:36:00,
2013-10-09 01:46:00,75.6,75.1,0.00,WSW,247,0.0,0.0,98,0.00,,,-99.99,Homeseer,2013-10-09 05:46:00,
2013-10-09 01:56:00,75.2,74.7,0.00,WNW,297,0.0,0.0,98,0.00,,,-99.99,Homeseer,2013-10-09 05:56:00,
2013-10-09 02:06:00,74.8,74.3,0.00,WSW,247,0.0,0.0,98,0.00,,,-99.99,Homeseer,2013-10-09 06:06:00,
2013-10-09 02:16:00,74.8,74.3,0.00,WSW,247,0.0,0.0,98,0.00,,,-99.99,Homeseer,2013-10-09 06:16:00,
2013-10-09 02:26:00,75.0,74.5,0.00,WSW,247,0.0,0.0,98,0.00,,,-99.99,Homeseer,2013-10-09 06:26:00,
2013-10-09 02:36:00,74.8,74.3,0.00,SW,225,0.0,0.0,98,0.00,,,-99.99,Homeseer,2013-10-09 06:36:00,
2013-10-09 02:46:00,74.7,74.2,0.00,SW,225,0.0,0.0,98,0.00,,,-99.99,Homeseer,2013-10-09 06:46:00,
2013-10-09 02:56:00,74.5,74.0,0.00,WNW,297,0.0,0.0,98,0.00,,,-99.99,Homeseer,2013-10-09 06:56:00,
2013-10-09 03:06:00,74.5,74.0,0.00,WNW,297,0.0,0.0,98,0.00,,,-99.99,Homeseer,2013-10-09 07:06:00,
2013-10-09 03:16:00,74.3,73.8,0.00,West,270,0.0,0.0,98,0.00,,,-99.99,Homeseer,2013-10-09 07:16:00,
2013-10-09 03:26:00,74.1,73.6,0.00,WSW,247,0.0,0.0,98,0.00,,,-99.99,Homeseer,2013-10-09 07:26:00,
2013-10-09 03:36:00,74.1,73.6,0.00,WNW,297,0.0,0.0,98,0.00,,,-99.99,Homeseer,2013-10-09 07:36:00,
2013-10-09 03:46:00,73.9,73.4,0.00,North,0,0.0,0.0,98,0.00,,,-99.99,Homeseer,2013-10-09 07:46:00,
2013-10-09 03:56:00,74.1,73.6,0.00,WNW,297,0.0,0.0,98,0.00,,,-99.99,Homeseer,2013-10-09 07:56:00,
2013-10-09 04:06:00,73.9,73.4,0.00,WNW,297,0.0,0.0,98,0.00,,,-99.99,Homeseer,2013-10-09 08:06:00,
2013-10-09 04:16:00,73.9,73.4,0.00,WSW,247,0.0,0.0,98,0.00,,,-99.99,Homeseer,2013-10-09 08:16:00,
2013-10-09 04:26:00,73.6,72.9,0.00,North,0,0.0,0.0,97,0.00,,,-99.99,Homeseer,2013-10-09 08:26:00,
2013-10-09 04:36:00,73.4,72.7,0.00,North,0,0.0,0.0,97,0.00,,,-99.99,Homeseer,2013-10-09 08:36:00,
2013-10-09 04:46:00,73.4,72.7,0.00,SW,225,0.0,0.0,97,0.00,,,-99.99,Homeseer,2013-10-09 08:46:00,
2013-10-09 04:56:00,73.6,72.9,0.00,SW,225,0.0,0.0,97,0.00,,,-99.99,Homeseer,2013-10-09 08:56:00,
2013-10-09 05:06:00,73.8,73.1,0.00,WNW,297,0.0,0.0,97,0.00,,,-99.99,Homeseer,2013-10-09 09:06:00,
2013-10-09 05:16:00,73.2,72.5,0.00,WNW,297,0.0,0.0,97,0.00,,,-99.99,Homeseer,2013-10-09 09:16:00,
2013-10-09 05:26:00,73.4,72.7,0.00,WNW,297,0.0,0.0,97,0.00,,,-99.99,Homeseer,2013-10-09 09:26:00,
2013-10-09 05:36:00,73.6,72.9,0.00,North,0,0.0,0.0,97,0.00,,,-99.99,Homeseer,2013-10-09 09:36:00,
2013-10-09 05:46:00,73.8,73.1,0.00,NW,315,0.0,0.0,97,0.00,,,-99.99,Homeseer,2013-10-09 09:46:00,
2013-10-09 05:56:00,73.8,73.1,0.00,WNW,297,1.3,0.0,97,0.00,,,-99.99,Homeseer,2013-10-09 09:56:00,
2013-10-09 06:06:00,73.6,72.9,0.00,North,0,1.3,1.3,97,0.00,,,-99.99,Homeseer,2013-10-09 10:06:00,
2013-10-09 06:16:00,73.6,72.9,0.00,WNW,297,0.0,0.0,97,0.00,,,-99.99,Homeseer,2013-10-09 10:16:00,
2013-10-09 06:26:00,73.6,72.9,0.00,WNW,297,0.0,0.0,97,0.00,,,-99.99,Homeseer,2013-10-09 10:26:00,
2013-10-09 06:36:00,73.6,72.9,0.00,WSW,247,0.0,0.0,97,0.00,,,-99.99,Homeseer,2013-10-09 10:36:00,
2013-10-09 06:46:00,73.6,72.9,0.00,WSW,247,0.0,0.0,97,0.00,,,-99.99,Homeseer,2013-10-09 10:46:00,
2013-10-09 06:56:00,73.6,72.9,0.00,WSW,247,0.0,0.0,97,0.00,,,-99.99,Homeseer,2013-10-09 10:56:00,
2013-10-09 07:06:00,73.6,72.6,0.00,WSW,247,0.0,0.0,96,0.00,,,-99.99,Homeseer,2013-10-09 11:06:00,
2013-10-09 07:16:00,73.6,72.6,0.00,WSW,247,0.0,0.0,96,0.00,,,-99.99,Homeseer,2013-10-09 11:16:00,
2013-10-09 07:26:00,73.6,72.6,0.00,WSW,247,0.0,0.0,96,0.00,,,-99.99,Homeseer,2013-10-09 11:26:00,
2013-10-09 07:36:00,73.8,72.8,0.00,WSW,247,0.0,0.0,96,0.00,,,-99.99,Homeseer,2013-10-09 11:36:00,
2013-10-09 07:46:00,73.9,72.9,0.00,WSW,247,0.0,0.0,96,0.00,,,-99.99,Homeseer,2013-10-09 11:46:00,
2013-10-09 07:56:00,74.5,73.5,0.00,WNW,297,0.0,0.0,96,0.00,,,-99.99,Homeseer,2013-10-09 11:56:00,
2013-10-09 08:06:00,75.0,74.0,0.00,WSW,247,0.0,0.0,96,0.00,,,-99.99,Homeseer,2013-10-09 12:06:00,
2013-10-09 08:16:00,75.6,74.4,0.00,WNW,297,0.0,0.0,95,0.00,,,-99.99,Homeseer,2013-10-09 12:16:00,
2013-10-09 08:26:00,76.1,74.9,0.00,NW,315,0.9,1.6,95,0.00,,,-99.99,Homeseer,2013-10-09 12:26:00,
2013-10-09 08:36:00,76.6,75.1,0.00,WNW,297,1.1,3.4,94,0.00,,,-99.99,Homeseer,2013-10-09 12:36:00,
2013-10-09 08:46:00,76.8,75.1,0.00,WNW,297,1.6,0.0,93,0.00,,,-99.99,Homeseer,2013-10-09 12:46:00,
2013-10-09 08:56:00,77.2,75.0,0.00,North,0,1.6,4.3,91,0.00,,,-99.99,Homeseer,2013-10-09 12:56:00,
2013-10-09 09:06:00,77.0,74.0,0.00,North,0,6.9,7.6,88,0.00,,,-99.99,Homeseer,2013-10-09 13:06:00,
2013-10-09 09:16:00,77.4,74.4,0.00,North,0,4.3,4.3,88,0.00,,,-99.99,Homeseer,2013-10-09 13:16:00,
2013-10-09 09:26:00,77.4,74.4,0.00,North,0,4.7,4.7,88,0.00,,,-99.99,Homeseer,2013-10-09 13:26:00,
2013-10-09 09:36:00,77.7,74.4,0.00,WNW,297,5.4,7.4,87,0.00,,,-99.99,Homeseer,2013-10-09 13:36:00,
2013-10-09 09:46:00,78.6,75.0,0.00,North,0,4.5,5.8,86,0.00,,,-99.99,Homeseer,2013-10-09 13:46:00,
2013-10-09 09:56:00,79.3,73.7,0.00,North,0,3.6,3.6,79,0.00,,,-99.99,Homeseer,2013-10-09 13:56:00,
2013-10-09 10:06:00,79.7,72.9,0.00,North,0,7.2,7.2,75,0.00,,,-99.99,Homeseer,2013-10-09 14:06:00,
2013-10-09 10:16:00,79.9,72.1,0.00,North,0,5.8,5.8,72,0.00,,,-99.99,Homeseer,2013-10-09 14:16:00,
2013-10-09 10:26:00,80.4,72.6,0.00,WNW,297,3.8,5.8,72,0.00,,,-99.99,Homeseer,2013-10-09 14:26:00,
2013-10-09 10:36:00,79.9,72.1,0.00,NW,315,5.6,6.5,72,0.00,,,-99.99,Homeseer,2013-10-09 14:36:00,
2013-10-09 10:46:00,81.0,72.1,0.00,North,0,5.6,5.6,69,0.00,,,-99.99,Homeseer,2013-10-09 14:46:00,
2013-10-09 10:56:00,79.3,71.8,0.00,North,0,9.4,9.4,73,0.00,,,-99.99,Homeseer,2013-10-09 14:56:00,
2013-10-09 11:06:00,79.0,72.5,0.00,North,0,5.8,5.8,76,0.00,,,-99.99,Homeseer,2013-10-09 15:06:00,
2013-10-09 11:16:00,78.6,73.9,0.00,North,0,6.3,7.4,82,0.00,,,-99.99,Homeseer,2013-10-09 15:16:00,
2013-10-09 11:26:00,78.8,74.6,0.00,North,0,5.4,6.0,84,0.00,,,-99.99,Homeseer,2013-10-09 15:26:00,
2013-10-09 11:36:00,78.8,73.8,0.00,North,0,5.6,6.5,81,0.00,,,-99.99,Homeseer,2013-10-09 15:36:00,
2013-10-09 11:46:00,79.2,73.6,0.00,North,0,6.5,6.5,79,0.00,,,-99.99,Homeseer,2013-10-09 15:46:00,
2013-10-09 11:56:00,79.5,73.6,0.00,North,0,4.0,4.0,78,0.00,,,-99.99,Homeseer,2013-10-09 15:56:00,
2013-10-09 12:06:00,80.8,72.9,0.00,North,0,7.8,7.8,72,0.00,,,-99.99,Homeseer,2013-10-09 16:06:00,
2013-10-09 12:16:00,81.9,72.3,0.00,North,0,5.6,5.6,67,0.00,,,-99.99,Homeseer,2013-10-09 16:16:00,
2013-10-09 12:26:00,82.0,71.3,0.00,North,0,5.6,7.2,64,0.00,,,-99.99,Homeseer,2013-10-09 16:26:00,
2013-10-09 12:36:00,82.9,71.5,0.00,North,0,6.0,8.5,62,0.00,,,-99.99,Homeseer,2013-10-09 16:36:00,
2013-10-09 12:46:00,82.8,70.6,0.00,North,0,4.5,4.5,60,0.00,,,-99.99,Homeseer,2013-10-09 16:46:00,
2013-10-09 12:56:00,81.5,70.9,0.00,North,0,5.8,6.0,64,0.00,,,-99.99,Homeseer,2013-10-09 16:56:00,
2013-10-09 13:06:00,82.0,71.0,0.00,North,0,6.0,6.9,63,0.00,,,-99.99,Homeseer,2013-10-09 17:06:00,
2013-10-09 13:16:00,82.6,71.2,0.00,North,0,5.4,5.4,62,0.00,,,-99.99,Homeseer,2013-10-09 17:16:00,
2013-10-09 13:26:00,83.3,70.7,0.00,North,0,4.5,7.8,59,0.00,,,-99.99,Homeseer,2013-10-09 17:26:00,
2013-10-09 13:36:00,83.5,70.5,0.00,North,0,4.0,6.5,58,0.00,,,-99.99,Homeseer,2013-10-09 17:36:00,
2013-10-09 13:46:00,84.0,68.9,0.00,North,0,6.5,6.9,53,0.00,,,-99.99,Homeseer,2013-10-09 17:46:00,
2013-10-09 13:56:00,84.9,69.3,0.00,ENE,67,6.3,6.3,52,0.00,,,-99.99,Homeseer,2013-10-09 17:56:00,
2013-10-09 14:06:00,84.0,69.7,0.00,North,0,4.9,9.8,55,0.00,,,-99.99,Homeseer,2013-10-09 18:06:00,
2013-10-09 14:16:00,83.5,70.1,0.00,NNE,22,4.5,8.1,57,0.00,,,-99.99,Homeseer,2013-10-09 18:16:00,
2013-10-09 14:26:00,83.7,69.9,0.00,North,0,5.6,6.3,56,0.00,,,-99.99,Homeseer,2013-10-09 18:26:00,
2013-10-09 14:36:00,83.7,68.2,0.00,North,0,3.4,7.6,52,0.00,,,-99.99,Homeseer,2013-10-09 18:36:00,
2013-10-09 14:46:00,83.7,68.6,0.00,NE,45,3.6,3.6,53,0.00,,,-99.99,Homeseer,2013-10-09 18:46:00,
2013-10-09 14:56:00,84.2,67.3,0.00,SSE,157,4.0,4.0,49,0.00,,,-99.99,Homeseer,2013-10-09 18:56:00,
2013-10-09 15:06:00,83.1,68.9,0.00,NNE,22,4.0,5.6,55,0.00,,,-99.99,Homeseer,2013-10-09 19:06:00,
2013-10-09 15:16:00,83.5,69.7,0.00,NNE,22,6.0,6.0,56,0.00,,,-99.99,Homeseer,2013-10-09 19:16:00,
2013-10-09 15:26:00,82.8,70.2,0.00,ESE,112,5.4,5.4,59,0.00,,,-99.99,Homeseer,2013-10-09 19:26:00,
2013-10-09 15:36:00,82.4,67.8,0.00,ENE,67,4.0,4.0,54,0.00,,,-99.99,Homeseer,2013-10-09 19:36:00,
2013-10-09 15:46:00,82.2,68.5,0.00,ENE,67,5.6,5.6,56,0.00,,,-99.99,Homeseer,2013-10-09 19:46:00,
2013-10-09 15:56:00,82.6,68.4,0.00,ENE,67,3.8,3.8,55,0.00,,,-99.99,Homeseer,2013-10-09 19:56:00,
2013-10-09 16:06:00,83.1,68.1,0.00,NNE,22,4.0,4.7,53,0.00,,,-99.99,Homeseer,2013-10-09 20:06:00,
2013-10-09 16:16:00,82.6,69.2,0.00,ENE,67,5.6,5.6,57,0.00,,,-99.99,Homeseer,2013-10-09 20:16:00,
2013-10-09 16:26:00,82.6,69.2,0.00,NNE,22,2.7,2.7,57,0.00,,,-99.99,Homeseer,2013-10-09 20:26:00,
2013-10-09 16:36:00,82.6,67.6,0.00,ENE,67,4.0,4.0,53,0.00,,,-99.99,Homeseer,2013-10-09 20:36:00,
2013-10-09 16:46:00,82.4,67.4,0.00,East,90,4.7,6.3,53,0.00,,,-99.99,Homeseer,2013-10-09 20:46:00,
2013-10-09 16:56:00,82.8,68.2,0.00,ENE,67,3.1,4.0,54,0.00,,,-99.99,Homeseer,2013-10-09 20:56:00,
2013-10-09 17:06:00,82.6,68.0,0.00,NNE,22,3.1,3.1,54,0.00,,,-99.99,Homeseer,2013-10-09 21:06:00,
2013-10-09 17:16:00,82.4,68.7,0.00,ENE,67,3.6,4.0,56,0.00,,,-99.99,Homeseer,2013-10-09 21:16:00,
2013-10-09 17:26:00,82.0,69.1,0.00,WNW,297,1.6,1.6,58,0.00,,,-99.99,Homeseer,2013-10-09 21:26:00,
2013-10-09 17:36:00,82.0,69.1,0.00,ESE,112,5.6,5.6,58,0.00,,,-99.99,Homeseer,2013-10-09 21:36:00,
2013-10-09 17:46:00,81.5,69.8,0.00,ESE,112,4.9,4.9,61,0.00,,,-99.99,Homeseer,2013-10-09 21:46:00,
2013-10-09 17:56:00,81.3,69.6,0.00,ENE,67,3.6,4.0,61,0.00,,,-99.99,Homeseer,2013-10-09 21:56:00,
2013-10-09 18:06:00,81.5,70.2,0.00,NNE,22,3.6,3.6,62,0.00,,,-99.99,Homeseer,2013-10-09 22:06:00,
2013-10-09 18:16:00,81.3,69.6,0.00,ESE,112,3.6,3.6,61,0.00,,,-99.99,Homeseer,2013-10-09 22:16:00,
2013-10-09 18:26:00,81.3,70.0,0.00,East,90,1.6,2.2,62,0.00,,,-99.99,Homeseer,2013-10-09 22:26:00,
2013-10-09 18:36:00,81.3,69.6,0.00,NE,45,2.0,2.0,61,0.00,,,-99.99,Homeseer,2013-10-09 22:36:00,
2013-10-09 18:46:00,81.1,70.1,0.00,NNE,22,2.5,7.2,63,0.00,,,-99.99,Homeseer,2013-10-09 22:46:00,
2013-10-09 18:56:00,81.0,68.9,0.00,North,0,6.5,6.5,60,0.00,,,-99.99,Homeseer,2013-10-09 22:56:00,
2013-10-09 19:06:00,81.0,69.3,0.00,NNE,22,4.3,6.0,61,0.00,,,-99.99,Homeseer,2013-10-09 23:06:00,
2013-10-09 19:16:00,80.8,69.1,0.00,North,0,3.6,3.6,61,0.00,,,-99.99,Homeseer,2013-10-09 23:16:00,
2013-10-09 19:26:00,80.6,68.6,0.00,NE,45,6.3,6.5,60,0.00,,,-99.99,Homeseer,2013-10-09 23:26:00,
2013-10-09 19:36:00,80.6,69.3,0.00,ESE,112,2.0,2.0,62,0.00,,,-99.99,Homeseer,2013-10-09 23:36:00,
2013-10-09 19:46:00,80.6,70.0,0.00,North,0,4.7,4.7,64,0.00,,,-99.99,Homeseer,2013-10-09 23:46:00,
2013-10-09 19:56:00,80.4,69.9,0.00,North,0,3.8,3.8,64,0.00,,,-99.99,Homeseer,2013-10-09 23:56:00,
2013-10-09 20:06:00,80.2,69.7,0.00,NNE,22,3.1,3.1,64,0.00,,,-99.99,Homeseer,2013-10-10 00:06:00,
2013-10-09 20:16:00,80.1,69.9,0.00,ENE,67,3.4,3.4,65,0.00,,,-99.99,Homeseer,2013-10-10 00:16:00,
2013-10-09 20:26:00,79.9,70.1,0.00,North,0,2.5,4.3,66,0.00,,,-99.99,Homeseer,2013-10-10 00:26:00,
2013-10-09 20:36:00,79.7,69.9,0.00,NNE,22,2.2,3.8,66,0.00,,,-99.99,Homeseer,2013-10-10 00:36:00,
2013-10-09 20:46:00,79.5,70.4,0.00,North,0,2.5,0.0,68,0.00,,,-99.99,Homeseer,2013-10-10 00:46:00,
2013-10-09 20:56:00,79.5,70.4,0.00,NNE,22,2.7,4.3,68,0.00,,,-99.99,Homeseer,2013-10-10 00:56:00,
2013-10-09 21:06:00,79.3,70.2,0.00,NE,45,3.4,3.4,68,0.00,,,-99.99,Homeseer,2013-10-10 01:06:00,
2013-10-09 21:16:00,79.2,70.4,0.00,North,0,2.7,2.7,69,0.00,,,-99.99,Homeseer,2013-10-10 01:16:00,
2013-10-09 21:26:00,79.0,70.6,0.00,North,0,4.0,4.0,70,0.00,,,-99.99,Homeseer,2013-10-10 01:26:00,
2013-10-09 21:36:00,78.8,70.4,0.00,NNE,22,3.1,3.1,70,0.00,,,-99.99,Homeseer,2013-10-10 01:36:00,
2013-10-09 21:46:00,78.8,71.0,0.00,ENE,67,4.0,4.0,72,0.00,,,-99.99,Homeseer,2013-10-10 01:46:00,
2013-10-09 21:56:00,78.6,70.9,0.00,WNW,297,3.1,3.1,72,0.00,,,-99.99,Homeseer,2013-10-10 01:56:00,
2013-10-09 22:06:00,78.6,70.9,0.00,ENE,67,3.6,3.6,72,0.00,,,-99.99,Homeseer,2013-10-10 02:06:00,
2013-10-09 22:16:00,78.6,71.2,0.00,North,0,3.8,4.7,73,0.00,,,-99.99,Homeseer,2013-10-10 02:16:00,
2013-10-09 22:26:00,78.4,71.0,0.00,North,0,4.3,4.3,73,0.00,,,-99.99,Homeseer,2013-10-10 02:26:00,
2013-10-09 22:36:00,78.4,71.3,0.00,East,90,4.3,4.9,74,0.00,,,-99.99,Homeseer,2013-10-10 02:36:00,
2013-10-09 22:46:00,78.4,71.0,0.00,North,0,2.5,3.6,73,0.00,,,-99.99,Homeseer,2013-10-10 02:46:00,
2013-10-09 22:56:00,78.3,71.2,0.00,ENE,67,2.9,2.9,74,0.00,,,-99.99,Homeseer,2013-10-10 02:56:00,
2013-10-09 23:06:00,78.3,70.9,0.00,ENE,67,3.6,3.6,73,0.00,,,-99.99,Homeseer,2013-10-10 03:06:00,
2013-10-09 23:16:00,78.1,71.0,0.00,North,0,2.7,3.1,74,0.00,,,-99.99,Homeseer,2013-10-10 03:16:00,
2013-10-09 23:26:00,78.1,71.6,0.00,North,0,4.3,6.0,76,0.00,,,-99.99,Homeseer,2013-10-10 03:26:00,
2013-10-09 23:36:00,77.9,71.4,0.00,North,0,3.8,3.8,76,0.00,,,-99.99,Homeseer,2013-10-10 03:36:00,
2013-10-09 23:46:00,77.9,71.4,0.00,North,0,2.9,4.5,76,0.00,,,-99.99,Homeseer,2013-10-10 03:46:00,
2013-10-09 23:56:00,77.7,71.2,0.00,North,0,1.6,3.6,76,0.00,,,-99.99,Homeseer,2013-10-10 03:56:00,